Weather reports worldwide

Advertisment
Glasgow/Bishopton, United Kingdom (3134): temperature & dewpoint: 15.05.2019 15:00:00 - 21.05.2019 15:00:00 (BST)Glasgow/Bishopton, United Kingdom (3134): temperature -20cm & temperature -100cm: 15.05.2019 15:00:00 - 21.05.2019 15:00:00 (BST)Glasgow/Bishopton, United Kingdom (3134): wind speed & gusts: 15.05.2019 15:00:00 - 21.05.2019 15:00:00 (BST)Glasgow/Bishopton, United Kingdom (3134): wind direction: 15.05.2019 15:00:00 - 21.05.2019 15:00:00 (BST)Glasgow/Bishopton, United Kingdom (3134): reduced air pressure: 15.05.2019 15:00:00 - 21.05.2019 15:00:00 (BST)Glasgow/Bishopton, United Kingdom (3134): visibility: 15.05.2019 15:00:00 - 21.05.2019 15:00:00 (BST)Glasgow/Bishopton, United Kingdom (3134): sunshine duration: 15.05.2019 15:00:00 - 21.05.2019 15:00:00 (BST)Glasgow/Bishopton, United Kingdom (3134): precipitation: 15.05.2019 15:00:00 - 21.05.2019 15:00:00 (BST)
Date & Time tt [°C] td [°C] tt -20cm [°C] tt -100cm [°C] ff [km/h] ff [kn] fx [km/h] fx [kn] dd ppp [hPa] vv [km] sd [min] rr [mm]
21.05.2019 15:00:00 16,8 8,4 - - 18 10 - - NW 1017,9 30 42 0,0
21.05.2019 14:00:00 14,8 5,0 - - 15 8 - - NW 1017,9 45 48 0,0
21.05.2019 13:00:00 15,9 6,9 - - 16 9 - - NW 1018,0 20 48 0,0
21.05.2019 12:00:00 14,3 6,5 - - 18 10 - - NW 1018,3 50 48 0,0
21.05.2019 11:00:00 14,5 7,4 - - 15 8 - - WNW 1018,2 35 60 0,0
21.05.2019 10:00:00 13,1 6,2 13,5 11,5 18 10 - - NW 1018,2 50 60 0,0
21.05.2019 09:00:00 12,5 7,3 - - 15 8 - - WNW 1017,9 27 60 0,0
21.05.2019 08:00:00 11,0 7,3 - - 16 9 - - NW 1017,6 40 60 0,0
21.05.2019 07:00:00 9,7 6,9 - - 16 9 - - NW 1017,5 45 54 0,0
21.05.2019 06:00:00 8,2 6,3 - - 13 7 - - WNW 1017,3 40 0 0,0
21.05.2019 05:00:00 8,2 6,3 - - 16 9 - - NW 1017,2 50 0 0,0
21.05.2019 04:00:00 9,0 6,8 - - 11 6 - - NW 1016,9 50 0 0,0
21.05.2019 03:00:00 9,2 6,7 - - 22 12 - - NW 1016,8 45 0 0,0
21.05.2019 02:00:00 8,8 6,6 - - 11 6 - - NW 1016,5 50 0 0,0
21.05.2019 01:00:00 10,0 6,8 - - 11 6 - - WNW 1016,4 50 - 0,0
21.05.2019 00:00:00 10,2 6,9 - - 16 9 - - NW 1016,0 45 0 0,0
20.05.2019 23:00:00 10,5 6,7 - - 16 9 - - WNW 1015,7 50 0 0,0
20.05.2019 22:00:00 11,1 7,2 - - 15 8 - - WNW 1015,5 45 6 0,0
20.05.2019 21:00:00 12,1 7,6 - - 16 9 - - WNW 1015,1 50 6 0,0
20.05.2019 20:00:00 12,6 7,8 - - 13 7 - - WNW 1014,8 35 0 0,0
20.05.2019 19:00:00 13,1 8,0 - - 16 9 - - NW 1014,5 45 0 0,0
20.05.2019 18:00:00 13,5 8,1 - - 22 12 - - NW 1014,2 40 0 0,0
20.05.2019 17:00:00 14,8 8,1 - - 18 10 - - NW 1013,9 50 6 0,0
20.05.2019 16:00:00 14,8 8,6 - - 18 10 - - NW 1013,9 29 18 0,0
20.05.2019 15:00:00 14,7 9,4 - - 18 10 - - NW 1013,7 30 0 0,0
20.05.2019 14:00:00 15,3 9,8 - - 18 10 - - NW 1013,7 35 42 0,0
20.05.2019 13:00:00 14,4 9,5 - - 16 9 - - W 1013,6 30 6 0,0
20.05.2019 12:00:00 13,7 9,0 - - 13 7 - - W 1013,5 30 0 0,0
20.05.2019 11:00:00 12,4 8,4 - - 15 8 - - W 1013,5 28 0 0,0
20.05.2019 10:00:00 12,6 9,2 13,2 11,4 13 7 - - WNW 1013,3 27 0 0,0
20.05.2019 09:00:00 11,8 9,4 - - 11 6 - - W 1013,1 40 0 0,0
20.05.2019 08:00:00 10,9 9,0 - - 8 4 - - WNW 1012,8 40 0 0,0
20.05.2019 07:00:00 10,2 8,8 - - 5 3 - - WNW 1012,5 45 0 0,0
20.05.2019 06:00:00 9,8 8,5 - - 9 5 - - W 1012,2 40 0 0,0
20.05.2019 05:00:00 9,5 8,3 - - 8 4 - - W 1012,1 50 0 0,0
20.05.2019 04:00:00 9,5 8,3 - - 11 6 - - W 1012,0 40 0 0,0
20.05.2019 03:00:00 9,0 8,0 - - 9 5 - - W 1012,2 35 0 0,0
20.05.2019 02:00:00 8,5 7,0 - - 9 5 - - W 1012,2 35 0 0,0
20.05.2019 01:00:00 9,9 8,1 - - 9 5 - - WNW 1012,3 45 - 0,0
20.05.2019 00:00:00 9,4 7,5 - - 13 7 - - WNW 1012,3 40 0 0,0
19.05.2019 23:00:00 10,0 7,7 - - 15 8 - - NW 1012,0 50 0 0,0
19.05.2019 22:00:00 10,9 8,1 - - 8 4 - - WNW 1011,8 50 0 0,0
19.05.2019 21:00:00 11,2 8,4 - - 13 7 - - NW 1011,4 50 0 0,0
19.05.2019 20:00:00 11,3 8,7 - - 16 9 - - NW 1011,0 45 0 0,0
19.05.2019 19:00:00 12,2 9,4 - - 11 6 - - WNW 1010,7 30 0 0,0
19.05.2019 18:00:00 12,3 9,6 - - 15 8 - - NNW 1010,5 30 0 0,0
19.05.2019 17:00:00 13,3 9,2 - - 16 9 - - W 1010,3 27 0 0,0
19.05.2019 16:00:00 13,4 9,5 - - 9 5 - - NW 1010,1 21 0 0,0
19.05.2019 15:00:00 12,3 9,1 - - 9 5 - - NW 1009,9 40 0 0,0
19.05.2019 14:00:00 12,4 9,0 - - 5 3 - - N 1009,9 30 0 0,0
19.05.2019 13:00:00 12,6 9,1 - - 9 5 - - NNW 1009,7 30 0 0,0
19.05.2019 12:00:00 11,8 8,6 - - 8 4 - - NNW 1009,5 30 0 0,0
19.05.2019 11:00:00 13,0 8,6 - - 4 2 - - W 1009,2 40 0 0,0
19.05.2019 10:00:00 11,8 9,3 13,2 11,2 2 1 - - W 1009,1 35 0 0,0
19.05.2019 09:00:00 11,3 9,1 - - 9 5 - - WNW 1008,8 45 6 0,0
19.05.2019 08:00:00 10,1 9,5 - - 4 2 - - SW 1008,4 30 0 0,0
19.05.2019 07:00:00 9,4 9,0 - - 2 1 - - N 1008,2 45 0 0,0
19.05.2019 06:00:00 9,5 9,2 - - 2 1 - - W 1008,1 30 0 0,0
19.05.2019 05:00:00 9,5 9,2 - - 8 4 - - NW 1007,8 8 0 0,2
19.05.2019 04:00:00 9,5 9,1 - - 8 4 - - NW 1007,9 2,8 0 0,2
19.05.2019 03:00:00 9,6 9,1 - - 8 4 - - NW 1007,8 6 0 0,0
19.05.2019 02:00:00 9,8 9,1 - - 9 5 - - NNW 1007,7 40 0 0,0
19.05.2019 01:00:00 10,0 9,3 - - 9 5 - - NNW 1007,8 50 - 0,0
19.05.2019 00:00:00 10,3 9,8 - - 9 5 - - NNW 1007,8 20 0 0,0
18.05.2019 23:00:00 10,2 9,4 - - 9 5 - - NW 1007,9 40 0 0,0
18.05.2019 22:00:00 10,4 9,5 - - 8 4 - - NW 1007,9 50 0 0,0
18.05.2019 21:00:00 11,0 10,0 - - 4 2 - - N 1007,7 28 0 0,0
18.05.2019 20:00:00 11,1 10,2 - - 4 2 - - WNW 1007,5 22 0 0,0
18.05.2019 19:00:00 11,1 10,0 - - 5 3 - - WNW 1007,5 30 0 0,0
18.05.2019 18:00:00 10,8 9,7 - - 8 4 - - NNW 1007,3 26 0 0,0
18.05.2019 17:00:00 10,6 9,3 - - 5 3 - - N 1007,4 24 0 0,2
18.05.2019 16:00:00 11,1 9,6 - - 5 3 - - NE 1007,6 4,5 0 0,4
18.05.2019 15:00:00 10,7 10,1 - - 8 4 - - N 1007,8 3,4 0 1,0
18.05.2019 14:00:00 10,8 9,9 - - 5 3 - - NNW 1008,0 2,5 0 0,8
18.05.2019 13:00:00 10,7 9,6 - - 5 3 - - ESE 1008,3 2,7 0 0,8
18.05.2019 12:00:00 10,7 9,3 - - 4 2 - - W 1008,3 15 0 0,2
18.05.2019 11:00:00 10,5 9,1 - - 8 4 - - ENE 1008,5 9 0 0,2
18.05.2019 10:00:00 10,6 9,4 13,7 11,2 9 5 - - ENE 1008,6 11 0 0,2
18.05.2019 09:00:00 10,2 9,0 - - 11 6 - - NE 1008,9 11 0 0,0
18.05.2019 08:00:00 9,8 8,9 - - 11 6 - - ENE 1009,0 11 0 0,0
18.05.2019 07:00:00 9,9 8,8 - - 9 5 - - ENE 1009,1 20 0 0,0
18.05.2019 06:00:00 9,8 8,6 - - 9 5 - - NE 1009,5 35 0 0,2
18.05.2019 05:00:00 9,6 8,5 - - 9 5 - - NE 1009,9 18 0 0,8
18.05.2019 04:00:00 9,5 8,4 - - 5 3 - - NE 1010,7 15 0 0,6
18.05.2019 03:00:00 9,7 8,1 - - 9 5 - - NNE 1011,3 40 0 0,2
18.05.2019 02:00:00 9,5 7,9 - - 9 5 - - NE 1011,8 45 0 0,0
18.05.2019 01:00:00 9,7 7,4 - - 15 8 - - NE 1012,7 30 - 0,0
18.05.2019 00:00:00 9,4 6,2 - - 9 5 - - NE 1013,3 40 0 0,6
17.05.2019 23:00:00 9,5 5,8 - - 9 5 - - ESE 1013,7 20 0 0,0
17.05.2019 22:00:00 11,4 6,0 - - 9 5 - - E 1013,6 23 0 0,0
17.05.2019 21:00:00 12,0 8,0 - - 15 8 - - E 1013,4 20 0 0,0
17.05.2019 20:00:00 14,0 8,0 - - 18 10 - - E 1013,3 30 12 0,0
17.05.2019 19:00:00 16,0 6,3 - - 21 11 - - E 1013,0 40 0 0,0
17.05.2019 18:00:00 16,9 5,4 - - 21 11 - - E 1013,1 30 36 0,0
17.05.2019 17:00:00 18,0 5,4 - - 22 12 - - ESE 1013,6 30 30 0,0
17.05.2019 16:00:00 19,3 5,8 - - 22 12 - - ESE 1013,9 35 60 0,0
17.05.2019 15:00:00 19,1 5,9 - - 26 14 - - E 1014,7 19 60 0,0
17.05.2019 14:00:00 18,3 6,3 - - 24 13 - - E 1015,4 28 60 0,0
17.05.2019 13:00:00 18,3 6,1 - - 22 12 - - ESE 1015,8 14 60 0,0
17.05.2019 12:00:00 16,3 7,5 - - 13 7 - - E 1016,7 28 36 0,0
17.05.2019 11:00:00 15,0 5,5 - - 16 9 - - E 1017,3 30 12 0,0
17.05.2019 10:00:00 12,6 4,6 13,5 11,0 15 8 - - E 1017,8 40 0 0,0
17.05.2019 09:00:00 11,9 5,4 - - 11 6 - - ESE 1018,2 30 0 0,0
17.05.2019 08:00:00 11,0 5,2 - - 11 6 - - ESE 1018,8 21 18 0,0
17.05.2019 07:00:00 8,7 6,4 - - 8 4 - - NNW 1019,0 24 0 0,0
17.05.2019 06:00:00 7,8 5,1 - - 5 3 - - NW 1019,4 40 0 0,0
17.05.2019 05:00:00 9,0 3,3 - - 4 2 - - E 1019,4 50 0 0,0
17.05.2019 04:00:00 9,4 3,6 - - 11 6 - - E 1019,4 50 0 0,0
17.05.2019 03:00:00 9,5 3,9 - - 9 5 - - E 1019,7 45 0 0,0
17.05.2019 02:00:00 8,6 4,2 - - 8 4 - - E 1020,1 50 0 0,0
17.05.2019 01:00:00 9,3 4,9 - - 15 8 - - E 1020,2 50 - 0,0
17.05.2019 00:00:00 10,4 5,4 - - 18 10 - - E 1020,3 40 0 0,0
16.05.2019 23:00:00 11,3 5,8 - - 21 11 - - E 1020,0 45 0 0,0
16.05.2019 22:00:00 11,8 5,8 - - 18 10 - - E 1019,6 40 0 0,0
16.05.2019 21:00:00 13,0 6,6 - - 26 14 - - E 1019,1 35 18 0,0
16.05.2019 20:00:00 13,6 6,7 - - 26 14 50 27 E 1018,6 50 6 0,0
16.05.2019 19:00:00 15,5 6,4 - - 29 16 46 25 E 1018,3 40 60 0,0
16.05.2019 18:00:00 16,6 6,4 - - 31 17 50 27 E 1018,4 40 36 0,0
16.05.2019 17:00:00 16,4 5,2 - - 31 17 50 27 E 1018,5 29 48 0,0
16.05.2019 16:00:00 18,8 6,8 - - 28 15 - - E 1018,6 21 54 0,0
16.05.2019 15:00:00 19,7 8,0 - - 18 10 - - E 1019,4 40 42 0,0
16.05.2019 14:00:00 19,1 8,1 - - 15 8 - - E 1020,2 30 48 0,0
16.05.2019 13:00:00 17,5 8,6 - - 15 8 - - E 1020,9 28 12 0,0
16.05.2019 12:00:00 15,1 8,7 - - 13 7 - - E 1021,7 30 0 0,0
16.05.2019 11:00:00 14,8 8,5 - - 13 7 - - E 1022,1 29 18 0,0
16.05.2019 10:00:00 13,7 8,0 13,7 10,7 9 5 - - E 1022,5 19 12 0,0
16.05.2019 09:00:00 12,5 8,4 - - 2 1 - - N 1022,6 14 6 0,0
16.05.2019 08:00:00 11,6 8,2 - - 5 3 - - E 1022,9 14 30 0,0
16.05.2019 07:00:00 10,4 8,7 - - 4 2 - - SW 1023,0 10 0 0,0
16.05.2019 06:00:00 10,1 8,8 - - 2 1 - - W 1022,8 8 0 0,0
16.05.2019 05:00:00 9,3 8,1 - - 8 4 - - NNW 1022,9 5 0 0,0
16.05.2019 04:00:00 10,0 8,6 - - 5 3 - - WNW 1023,2 5 0 0,0
16.05.2019 03:00:00 10,5 7,8 - - 4 2 - - E 1023,2 10 0 0,0
16.05.2019 02:00:00 11,4 8,7 - - 11 6 - - SE 1023,2 9 0 0,0
16.05.2019 01:00:00 12,4 9,1 - - 5 3 - - SE 1023,2 11 - 0,0
16.05.2019 00:00:00 13,0 8,8 - - 11 6 - - SE 1023,3 13 0 0,0
15.05.2019 23:00:00 14,2 8,2 - - 8 4 - - SSE 1023,5 19 0 0,0
15.05.2019 22:00:00 15,1 8,6 - - 5 3 - - E 1023,7 28 0 0,0
15.05.2019 21:00:00 16,1 8,7 - - 4 2 - - E 1023,7 45 0 0,0
15.05.2019 20:00:00 18,3 10,4 - - 4 2 - - N 1023,7 30 12 0,0
15.05.2019 19:00:00 19,0 9,8 - - 8 4 - - NNW 1024,0 30 0 0,0
15.05.2019 18:00:00 19,8 10,6 - - 5 3 - - N 1023,9 45 0 0,0
15.05.2019 17:00:00 21,2 9,5 - - 11 6 - - SW 1023,9 35 48 0,0
15.05.2019 16:00:00 22,6 9,8 - - 11 6 - - S 1023,9 28 54 0,0
15.05.2019 15:00:00 23,4 10,0 - - 8 4 - - ESE 1024,4 19 60 0,0

tt = temperature
td = dewpoint
tt -20cm = temperature -20cm
tt -100cm = temperature -100cm
ff = wind speed
fx = gusts
dd = wind direction
ppp = reduced air pressure
vv = visibility
sd = sunshine duration
rr = precipitation

Next stations